Terminal Aerodrome Forecast
Issued by NWS

Home | Current Version | Previous Version | Text Only | Print | Product List | Glossary On
Versions: 1 2 3 4 5 6 7 8 9 10 11 12 13 14 15 16 17 18 19 20 21 22 23 24
000
FTUS45 KPSR 031125
TAFSDL
TAF
KSDL 031125Z 0312/0412 VRB04KT P6SM BKN120 BKN250
     FM032100 21006KT P6SM FEW100 SCT250
     FM040200 25008KT P6SM BKN100 OVC250
     FM040900 25006KT P6SM VCSH SCT050 OVC100=

USA.gov is the U.S. government's official web portal to all federal, state and local government web resources and services.